Weerawila Airport

Jump to: basic info | weather | frequencies | runways | comments

Related pages: nearby airports | nearby navaids | notams | map

Basic information (top)

Codes: WRZ VCCW
Location: lon 6.254490, lat 81.235199, elev 50 ft / 15 m msl
Status: small_airport
Scheduled airline service: yes
Links: Wikipedia Mobile

Weather (top)

Current conditions for Mattala Rajapaksa International Airport 7nm (13km) SW (rec'd 2014/12/22 22:10Z):

VCRI 222210Z 01004KT 9999 SCT017 BKN080 24/22 Q1007 NOSIG

Airport forecast for Bandaranaike International Colombo Airport 98nm (181km) NW (rec'd 2014/12/22 18:43Z):

TAF VCBI 221540Z 2218/2324 04010KT 9999 SCT016 OVC100 TX28/2308Z TN23/2300Z 
      TEMPO 2218/2303 7000 -SHRA SCT010 BKN016 FEW020CB

Frequencies (top)

Verify before use: may be inaccurate or out of date.

TWR: 118.1 MHz (TWR)

Runways (top)

07/25: 4,000 x 93 ft (1,219 x 28 m) — paved — not lighted

Latest comments (top)

No comments yet for Weerawila Airport

More... (top)

See also NOTAMs and nearby airports and navaids, or visit the Weerawila Airport page at the main OurAirports website..